Location: Gunung Kajang
(2.4167°N, 113.7167°E)
Time: 05:07:55
(UTC+00:00)

CZ-4B R/B - Pass Details

Date: 29 May 2022
Orbit: 703 x 801 km, 98.9° (Epoch: 24 June)

Event Time Altitude Azimuth Distance (km) Brightness Sun altitude
Rises 20:19:00 0° 19° (NNE) 3,293 7.4 -27.5°
Reaches altitude 10° 20:21:21 10° 23° (NNE) 2,367 6.6 -26.9°
Maximum altitude 20:26:31 61° 103° (ESE) 904 4.0 -25.8°
Enters shadow 20:28:50 32° 170° (S) 1,332 4.6 -25.2°
